"2009-05-26 00:00:00",919032,8.98,41.99,4.318,1.121,14.84,104.0992,9.77,11.15,89.2,0,110.2,13.35,10.55,4.0
"2009-05-26 00:00:30",919033,8.82,43.96,3.408,1.205,14.65,104.0826,9.73,11.13,89.4,0,110.2,13.34,10.51,6.0
"2009-05-26 00:01:00",919034,8.77,48.26,5.193,1.052,14.65,104.0817,9.72,11.1,89.6,0,110.2,13.34,10.51,10.3
"2009-05-26 00:01:30",919035,8.71,43.06,4.78,0.862,14.71,104.0855,9.73,11.11,89.7,0,110.2,13.34,10.52,5.1
"2009-05-26 00:02:00",919036,9.45,42.99,4.169,1.058,14.68,104.0821,9.72,11.09,89.9,0,110.2,13.34,10.51,5.0
"2009-05-26 00:02:30",919037,10.22,45.21,4.63,0.964,14.86,104.078,9.71,11.09,90.2,0,110.2,13.34,10.50,7.2
"2009-05-26 00:03:00",919038,8.79,43.01,5.246,0.77,15.15,104.0727,9.7,11.05,90.3,0,110.2,13.34,10.49,5.0
"2009-05-26 00:03:30",919039,10.07,50.15,5.28,0.859,15.08,104.0634,9.68,11.04,90.5,0,110.2,13.34,10.46,12.2
"2009-05-26 00:04:00",919040,9.52,46.47,4.854,1.004,15.24,104.0601,9.67,11.06,90.6,0,110.2,13.34,10.45,8.5
"2009-05-26 00:04:30",919041,8.43,40.97,5.016,0.896,15.35,104.0585,9.66,11.01,90.7,0,110.2,13.34,10.45,3.0
"2009-05-26 00:05:00",919042,9.04,44.15,4.02,0.939,15.35,104.0554,9.66,11.03,90.9,0,110.2,13.34,10.44,6.2
"2009-05-26 00:05:30",919043,9.46,41.53,5.733,0.901,15.3,104.0515,9.65,10.99,91,0,110.2,13.34,10.43,3.5
"2009-05-26 00:06:00",919044,9.46,42.22,4.829,0.675,15.33,104.0447,9.63,11.01,91.2,0,110.2,13.34,10.41,4.2
"2009-05-26 00:06:30",919045,9.64,43.13,4.144,1.098,15.3,104.0352,9.6,11,91.4,0,110.2,13.34,10.39,5.1
"2009-05-26 00:07:00",919046,9.68,42.87,3.525,1.064,15.22,104.0309,9.59,10.97,91.5,0,110.2,13.35,10.38,4.9
"2009-05-26 00:07:30",919047,8.82,40.8,4.214,0.619,15.19,104.0298,9.59,10.96,91.7,0,110.1,13.35,10.38,2.8
"2009-05-26 00:08:00",919048,9.21,41.52,4.872,0.935,15.06,104.0298,9.59,10.91,91.8,0,110.1,13.35,10.38,3.5
"2009-05-26 00:08:30",919049,7.944,36.83,6.334,1.481,12.56,104.0298,9.59,10.8,91.8,0,110.1,13.35,10.38,358.8
"2009-05-26 00:09:00",919050,7.126,30.64,4.509,1.179,10.71,104.0298,9.59,10.62,91.8,0,110.1,13.35,10.38,352.6
"2009-05-26 00:09:30",919051,7.939,36.55,6.112,1.405,12.9,104.0298,9.59,10.79,92.1,0,110.1,13.35,10.38,358.5
"2009-05-26 00:10:00",919052,8.3,36.26,8.73,1.93,12.97,104.0298,9.59,10.78,92.2,0,110.2,13.36,10.38,358.3
"2009-05-26 00:10:30",919053,9.09,34.49,7.616,1.249,14.22,104.0264,9.58,10.9,92.4,0,110.1,13.36,10.37,356.5
"2009-05-26 00:11:00",919054,8.71,35.84,6.119,1.226,15.25,104.0244,9.58,10.9,92.5,0,110.1,13.36,10.36,357.8
"2009-05-26 00:11:30",919055,10.06,38.86,4.696,1.335,15.61,104.023,9.57,10.89,92.6,0,110.1,13.36,10.36,0.9
"2009-05-26 00:12:00",919056,9.74,40.79,3.695,1.201,15.76,104.0267,9.58,10.94,92.8,0,110.1,13.36,10.37,2.8
"2009-05-26 00:12:30",919057,9.32,41.11,3.438,1.066,15.91,104.0247,9.58,10.94,92.9,0,110.1,13.36,10.36,3.1
"2009-05-26 00:13:00",919058,9.19,39.16,4.07,0.825,15.73,104.0213,9.57,10.92,93,0,110.1,13.36,10.35,1.2
"2009-05-26 00:13:30",919059,8.84,39.86,4.323,0.822,15.47,104.021,9.57,10.89,93,0,110.1,13.36,10.35,1.9
"2009-05-26 00:14:00",919060,8.89,38.74,4.944,0.71,15.19,104.0168,9.56,10.89,93.1,0,110.1,13.36,10.34,0.7
"2009-05-26 00:14:30",919061,8.2,35.09,5.48,1.339,13.89,104.0117,9.54,10.83,93.1,0,110.1,13.36,10.33,357.1
"2009-05-26 00:15:00",919062,8.2,33.79,3.005,0.904,10.63,104.0117,9.54,10.56,92.9,0,110.1,13.36,10.33,355.8
"2009-05-26 00:15:30",919063,7.177,28.93,1.4,0.737,10.43,104.0112,9.54,10.57,93,0,110.1,13.39,10.33,350.9
"2009-05-26 00:16:00",919064,7.215,29.47,6.007,1.321,12.42,104.01,9.54,10.72,93.2,0,110.1,13.36,10.32,351.5
"2009-05-26 00:16:30",919065,8.39,37.55,7.222,1.149,14.86,104.0052,9.53,10.86,93.5,0,110.1,13.36,10.31,359.5
"2009-05-26 00:17:00",919066,8.5,40.08,4.25,0.668,15.68,104.0027,9.52,10.87,93.5,0,110.2,13.36,10.31,2.1
"2009-05-26 00:17:30",919067,9.18,39.38,4.89,0.788,15.71,103.9996,9.51,10.85,93.6,0,110.1,13.36,10.30,1.4
"2009-05-26 00:18:00",919068,9.33,35.43,7.218,1.825,12.81,103.9954,9.5,10.66,93.4,0,110.1,13.36,10.29,357.4
"2009-05-26 00:18:30",919069,7.363,27.58,1.264,0.667,10.52,103.9878,9.48,10.54,93.3,0,110.1,13.39,10.27,349.6
"2009-05-26 00:19:00",919070,7.436,27.68,3.566,0.787,11.54,103.9844,9.47,10.67,93.4,0,110.1,13.36,10.26,349.7
"2009-05-26 00:19:30",919071,9.64,35.25,4.193,1.006,15.39,103.9776,9.46,10.73,93.5,0,110.1,13.36,10.24,357.2
"2009-05-26 00:20:00",919072,9.4,33.6,4.01,0.865,15.46,103.9705,9.44,10.82,93.6,0,110.1,13.36,10.22,355.6
"2009-05-26 00:20:30",919073,9.33,31.91,6.299,1.287,14.48,103.9688,9.43,10.73,93.5,0,110.1,13.36,10.22,353.9
"2009-05-26 00:21:00",919074,7.581,24.95,6.647,1.502,12.89,103.964,9.42,10.67,93.5,0,110.1,13.36,10.21,347.0
"2009-05-26 00:21:30",919075,7.198,23.16,4.172,0.886,10.86,103.9621,9.42,10.46,93.3,0,110.1,13.36,10.20,345.2
"2009-05-26 00:22:00",919076,5.876,26.41,2.621,0.492,10.14,103.9621,9.42,10.46,93.4,0,110.1,13.4,10.20,348.4
"2009-05-26 00:22:30",919077,7.368,32.27,7.186,1.145,13.7,103.9621,9.42,10.67,93.6,0,110.1,13.36,10.20,354.3
"2009-05-26 00:23:00",919078,8.94,39.38,3.677,1.237,15.14,103.9621,9.42,10.77,93.8,0,110.1,13.37,10.20,1.4
"2009-05-26 00:23:30",919079,7.749,39.44,6.529,1.629,13.87,103.9621,9.42,10.74,93.7,0,110.1,13.37,10.20,1.4
"2009-05-26 00:24:00",919080,6.498,37.25,7.771,1.608,12.75,103.9621,9.42,10.67,93.8,0,110.1,13.37,10.20,359.2
"2009-05-26 00:24:30",919081,6.527,33.51,5.794,1.122,11.48,103.9621,9.42,10.48,93.6,0,110.1,13.37,10.20,355.5
"2009-05-26 00:25:00",919082,5.801,27.49,2.564,0.749,10.13,103.9621,9.42,10.45,93.6,0,110.1,13.4,10.20,349.5
"2009-05-26 00:25:30",919083,6.068,30.88,6.473,1.448,12.33,103.9618,9.42,10.54,93.7,0,110.1,13.37,10.20,352.9
"2009-05-26 00:26:00",919084,6.881,37.47,6.653,1.3,14.02,103.9592,9.41,10.75,94,0,110.1,13.37,10.19,359.5
"2009-05-26 00:26:30",919085,7.215,36.28,5.812,1.534,14.56,103.9576,9.41,10.73,94,0,110.1,13.37,10.19,358.3
"2009-05-26 00:27:00",919086,6.789,37.44,6.813,1.163,13.56,103.9539,9.4,10.66,93.9,0,110.1,13.37,10.18,359.4
"2009-05-26 00:27:30",919087,5.105,30.96,2.858,0.403,10.52,103.9522,9.39,10.56,93.9,0,110.1,13.37,10.18,353.0
"2009-05-26 00:28:00",919088,7.399,36.44,7.7,1.299,11.63,103.9485,9.38,10.49,93.8,0,110.1,13.37,10.17,358.4
"2009-05-26 00:28:30",919089,7.207,30.7,2.219,0.731,10.41,103.9429,9.37,10.52,93.8,0,110.1,13.41,10.15,352.7
"2009-05-26 00:29:00",919090,8.25,36.4,8.23,1.632,14.06,103.931,9.34,10.63,93.9,0,110.2,13.37,10.12,358.4
"2009-05-26 00:29:30",919091,8.88,37.96,5.894,1.247,15.02,103.9296,9.33,10.7,94,0,110.1,13.37,10.12,360.0
"2009-05-26 00:30:00",919092,8.09,39.36,3.315,0.97,15.31,103.9291,9.33,10.68,93.9,0,110.1,13.37,10.12,1.4
"2009-05-26 00:30:30",919093,7.957,39.53,5.631,1.412,13.52,103.9224,9.32,10.55,93.8,0,110.1,13.37,10.10,1.5
"2009-05-26 00:31:00",919094,6.92,33.26,1.931,0.867,10.17,103.9198,9.31,10.48,93.8,0,110.1,13.37,10.09,355.3
"2009-05-26 00:31:30",919095,7.78,33.59,6.95,1.769,11.69,103.9174,9.3,10.38,93.7,0,110.1,13.37,10.09,355.6
"2009-05-26 00:32:00",919096,7.099,35.56,5.84,1.262,12.5,103.9068,9.28,10.58,93.9,0,110.1,13.37,10.06,357.6
"2009-05-26 00:32:30",919097,8.94,40.71,5.223,1.623,14.61,103.9014,9.26,10.63,93.9,0,110.1,13.37,10.05,2.7
"2009-05-26 00:33:00",919098,8.48,39.52,4.607,1.016,14.57,103.9014,9.26,10.61,93.9,0,110.1,13.37,10.05,1.5
"2009-05-26 00:33:30",919099,10.1,41.86,4.922,1.028,14.33,103.9023,9.26,10.55,93.9,0,110.1,13.37,10.05,3.9
"2009-05-26 00:34:00",919100,9.15,39.4,6.556,1.228,13.31,103.898,9.25,10.46,93.8,0,110.1,13.37,10.04,1.4
"2009-05-26 00:34:30",919101,7.998,32.56,5.872,1.358,11.38,103.897,9.25,10.36,93.6,0,110.1,13.37,10.03,354.6
"2009-05-26 00:35:00",919102,9.16,37.68,9.83,2.212,13.06,103.8994,9.26,10.44,93.7,0,110.1,13.36,10.04,359.7
"2009-05-26 00:35:30",919103,8.25,39.41,5.891,1.328,14.14,103.9011,9.26,10.51,93.8,0,110.1,13.36,10.05,1.4
"2009-05-26 00:36:00",919104,8.66,40.54,6.461,1.588,13.32,103.9026,9.26,10.5,93.8,0,110.1,13.36,10.05,2.5
"2009-05-26 00:36:30",919105,8.79,39.53,6.386,1.382,13.12,103.9041,9.27,10.44,93.8,0,110.1,13.36,10.05,1.5
"2009-05-26 00:37:00",919106,9.18,36.97,5.467,1.203,12.07,103.9052,9.27,10.41,93.8,0,110.1,13.36,10.06,359.0
"2009-05-26 00:37:30",919107,9.48,42.32,7.259,1.828,14,103.9082,9.28,10.42,93.8,0,110.1,13.36,10.06,4.3
"2009-05-26 00:38:00",919108,8.33,37.72,6.055,1.12,12.5,103.9072,9.28,10.39,93.7,0,110.1,13.37,10.06,359.7
"2009-05-26 00:38:30",919109,10.06,43.65,6.774,1.534,14.27,103.9153,9.3,10.44,93.8,0,110.1,13.37,10.08,5.7
"2009-05-26 00:39:00",919110,8.32,38.4,6.325,1.257,13.34,103.9185,9.31,10.53,93.9,0,110.1,13.37,10.09,0.4
"2009-05-26 00:39:30",919111,9.13,40.85,6.202,1.566,14.02,103.9182,9.3,10.45,93.8,0,110.1,13.37,10.09,2.8
"2009-05-26 00:40:00",919112,8.83,35.14,4.161,1.185,11.22,103.916,9.3,10.31,93.7,0,110.1,13.37,10.08,357.1
"2009-05-26 00:40:30",919113,9.51,41.92,5.528,1.207,14.09,103.9175,9.3,10.49,93.9,0,110.1,13.37,10.09,3.9
"2009-05-26 00:41:00",919114,7.88,36.89,6.688,1.116,12.51,103.9195,9.31,10.44,93.8,0,110.1,13.37,10.09,358.9
"2009-05-26 00:41:30",919115,8.83,41.54,6.94,1.677,13.48,103.921,9.31,10.43,93.8,0,110.1,13.37,10.10,3.5
"2009-05-26 00:42:00",919116,9.5,43.66,5.937,1.262,13.92,103.9238,9.32,10.44,93.8,0,110.1,13.38,10.10,5.7
"2009-05-26 00:42:30",919117,7.534,37.17,5.706,1.032,12.39,103.9235,9.32,10.4,93.8,0,110.1,13.38,10.10,359.2
"2009-05-26 00:43:00",919118,6.307,31.49,2.112,0.653,10.54,103.9267,9.33,10.36,93.8,0,110.1,13.38,10.11,353.5
"2009-05-26 00:43:30",919119,7.943,42.14,8.2,1.601,14.2,103.9284,9.33,10.49,93.9,0,110.1,13.38,10.12,4.1
"2009-05-26 00:44:00",919120,6.358,35.51,6.051,1.275,12.74,103.9244,9.32,10.38,93.9,0,110.1,13.38,10.11,357.5
"2009-05-26 00:44:30",919121,5.899,31.3,2.682,0.728,10.06,103.9253,9.32,10.26,93.7,0,110.1,13.38,10.11,353.3
"2009-05-26 00:45:00",919122,7.648,36.96,6.516,1.636,12.53,103.9256,9.32,10.47,93.9,0,110.1,13.38,10.11,359.0
"2009-05-26 00:45:30",919123,8.28,39.75,6.327,1.475,13,103.9208,9.31,10.43,93.9,0,110.1,13.38,10.10,1.8
"2009-05-26 00:46:00",919124,7.441,34.72,7.853,1.429,11.89,103.9194,9.31,10.32,93.8,0,110.1,13.38,10.09,356.7
"2009-05-26 00:46:30",919125,8.09,39.64,8.04,1.369,12.76,103.918,9.3,10.45,93.9,0,110.1,13.38,10.09,1.6
"2009-05-26 00:47:00",919126,8.3,40.65,7.499,1.9,12.64,103.9129,9.29,10.4,93.8,0,110.1,13.38,10.08,2.7
"2009-05-26 00:47:30",919127,5.84,29.91,3.426,0.577,10.07,103.9041,9.27,10.37,93.8,0,110.1,13.42,10.05,351.9
"2009-05-26 00:48:00",919128,8.55,38.98,7.829,1.634,12.81,103.9024,9.26,10.37,93.8,0,110.1,13.38,10.05,1.0
"2009-05-26 00:48:30",919129,10.05,45.28,5.387,1.169,13.78,103.8965,9.25,10.48,93.9,0,110.1,13.38,10.03,7.3
"2009-05-26 00:49:00",919130,8.98,40.63,6.678,1.685,13.5,103.8957,9.25,10.33,93.7,0,110.1,13.38,10.03,2.6
"2009-05-26 00:49:30",919131,10.55,44.4,6.543,1.172,14.34,103.8957,9.25,10.48,93.9,0,110.1,13.38,10.03,6.4
"2009-05-26 00:50:00",919132,10.84,45.52,6.216,1.245,14.23,103.8957,9.25,10.39,93.8,0,110.1,13.37,10.03,7.5
"2009-05-26 00:50:30",919133,10.48,42.9,6.069,1.38,12.44,103.8988,9.26,10.33,93.7,0,110.1,13.38,10.04,4.9
"2009-05-26 00:51:00",919134,10.14,42.67,6.047,1.075,12.24,103.9038,9.27,10.37,93.8,0,110.1,13.37,10.05,4.7
"2009-05-26 00:51:30",919135,11.23,52.3,5.939,1.14,14.83,103.9171,9.3,10.42,93.8,0,110.1,13.37,10.09,14.3
"2009-05-26 00:52:00",919136,10.26,49.3,6.675,1.262,13.33,103.9222,9.32,10.32,93.7,0,110.1,13.37,10.10,11.3
"2009-05-26 00:52:30",919137,10.77,50.29,6.079,1.164,14.95,103.9293,9.33,10.45,93.8,0,110.1,13.37,10.12,12.3
"2009-05-26 00:53:00",919138,10.48,47.47,6.499,1.279,14.06,103.9326,9.34,10.46,93.8,0,110.1,13.37,10.13,9.5
"2009-05-26 00:53:30",919139,10.23,46.18,6.903,1.254,13.07,103.9501,9.39,10.33,93.6,0,110.1,13.37,10.17,8.2
"2009-05-26 00:54:00",919140,10.48,46.83,6.069,1.252,13.57,103.9629,9.42,10.43,93.7,0,110.1,13.37,10.20,8.8
"2009-05-26 00:54:30",919141,10.18,45.51,6.057,1.258,13.3,103.9693,9.44,10.43,93.6,0,110.1,13.37,10.22,7.5
"2009-05-26 00:55:00",919142,10.36,48.74,6.272,1.278,14.28,103.9874,9.48,10.53,93.6,0,110.1,13.38,10.27,10.7
"2009-05-26 00:55:30",919143,10.73,52.16,5.786,1.221,14.93,103.997,9.51,10.59,93.5,0,110.1,13.38,10.29,14.2
"2009-05-26 00:56:00",919144,10.84,53.14,6.074,1.111,15.26,104.0018,9.52,10.59,93.4,0,110.1,13.38,10.30,15.1
"2009-05-26 00:56:30",919145,10.4,50.29,6.446,1.233,14.13,104.0233,9.57,10.57,93.3,0,110.1,13.38,10.36,12.3
"2009-05-26 00:57:00",919146,10.36,49.8,6.541,1.26,12.97,104.0312,9.59,10.38,92.9,0,110.1,13.38,10.38,11.8
"2009-05-26 00:57:30",919147,9.79,47.51,6.139,1.155,13.14,104.0433,9.62,10.63,93,0,110.1,13.39,10.41,9.5
"2009-05-26 00:58:00",919148,9.72,46.2,6.7,1.366,13.01,104.0608,9.67,10.51,92.7,0,110.1,13.39,10.46,8.2
"2009-05-26 00:58:30",919149,10.75,49.63,6.189,1.083,15.01,104.065,9.68,10.7,92.7,0,110.1,13.39,10.47,11.6
"2009-05-26 00:59:00",919150,10.32,47.35,6.137,1.264,14.89,104.0743,9.7,10.72,92.5,0,110.1,13.39,10.49,9.3
"2009-05-26 00:59:30",919151,10.98,48.57,4.216,0.865,15.3,104.0924,9.75,10.76,92.4,0,110.1,13.39,10.54,10.6
"2009-05-26 01:00:00",919152,9.29,40.41,5.671,0.987,11.88,104.0986,9.77,10.66,92.2,0,110.1,13.39,10.55,2.4
"2009-05-26 01:00:30",919153,10.2,46.57,7.312,1.382,13.65,104.0989,9.77,10.65,92,0,110.1,13.39,10.55,8.6
"2009-05-26 01:01:00",919154,9.51,43.79,6.219,1.181,13.31,104.102,9.77,10.74,91.9,0,110.1,13.39,10.56,5.8
"2009-05-26 01:01:30",919155,11.11,49.06,4.175,0.704,16.1,104.1074,9.79,10.9,91.9,0,110.1,13.39,10.57,11.1
"2009-05-26 01:02:00",919156,10.18,46.19,4.838,1.191,15.39,104.1105,9.8,10.86,91.6,0,110.1,13.39,10.58,8.2
"2009-05-26 01:02:30",919157,9.1,44.03,7.775,1.695,13.96,104.1096,9.79,10.82,91.5,0,110.1,13.39,10.58,6.0
"2009-05-26 01:03:00",919158,7.725,39.98,7.641,1.578,12.36,104.1074,9.79,10.78,91.3,0,110.1,13.39,10.57,2.0
"2009-05-26 01:03:30",919159,7.376,37.84,9.09,1.926,12.47,104.1062,9.79,10.72,91.1,0,110.1,13.38,10.57,359.8
"2009-05-26 01:04:00",919160,6.248,32.51,5.095,1.167,12.13,104.1026,9.78,10.83,91.1,0,110.1,13.39,10.56,354.5
"2009-05-26 01:04:30",919161,8.06,39.95,5.353,0.751,14.05,104.0989,9.77,10.9,91.1,0,110.1,13.39,10.55,2.0
"2009-05-26 01:05:00",919162,7.797,41.24,6.587,1.279,14.75,104.0986,9.77,10.93,91,0,110.1,13.39,10.55,3.2
"2009-05-26 01:05:30",919163,8.46,43.53,5.614,0.911,15.01,104.0924,9.75,10.95,90.9,0,110.1,13.39,10.54,5.5
"2009-05-26 01:06:00",919164,5.854,34.51,5.536,0.887,11.52,104.0828,9.73,10.79,90.7,0,110.1,13.39,10.51,356.5
"2009-05-26 01:06:30",919165,5.774,30.9,7.825,1.521,10.87,104.0713,9.7,10.69,90.5,0,110.1,13.38,10.48,352.9
"2009-05-26 01:07:00",919166,6.615,32.49,7.345,1.372,12.73,104.0653,9.68,10.78,90.6,0,110.1,13.38,10.47,354.5
"2009-05-26 01:07:30",919167,5.955,30.85,7.521,1.195,12.62,104.065,9.68,10.82,90.7,0,110.1,13.38,10.47,352.9
"2009-05-26 01:08:00",919168,7.044,33.15,7.193,1.46,14.54,104.065,9.68,10.89,90.7,0,110.1,13.38,10.47,355.1
"2009-05-26 01:08:30",919169,7.244,31.93,4.612,1.029,14.71,104.065,9.68,10.96,90.9,0,110.1,13.38,10.47,353.9
"2009-05-26 01:09:00",919170,5.579,22.4,7.175,1.5,12.23,104.065,9.68,10.83,90.8,0,110.1,13.38,10.47,344.4
"2009-05-26 01:09:30",919171,5.784,24.99,4.679,1.179,11.12,104.0611,9.67,10.66,90.6,0,110.1,13.38,10.46,347.0
"2009-05-26 01:10:00",919172,5.34,23.16,1.878,0.226,10.09,104.0566,9.66,10.64,90.6,0,110.1,13.39,10.44,345.2
"2009-05-26 01:10:30",919173,6.747,30.71,6.49,1.332,13.18,104.0557,9.66,10.91,91,0,110.1,13.38,10.44,352.7
"2009-05-26 01:11:00",919174,6.053,25.44,6.709,1.329,14.29,104.0515,9.65,10.92,91,0,110.1,13.39,10.43,347.4
"2009-05-26 01:11:30",919175,6.632,30.33,7.748,1.113,13.86,104.0436,9.63,10.89,91,0,110.1,13.39,10.41,352.3
"2009-05-26 01:12:00",919176,6.723,29.42,4.991,1.297,13.95,104.0371,9.61,10.88,91,0,110.1,13.39,10.39,351.4
"2009-05-26 01:12:30",919177,5.121,23.38,7.315,1.046,11.16,104.032,9.6,10.64,90.8,0,110.1,13.39,10.38,345.4
"2009-05-26 01:13:00",919178,4.46,17.69,6.217,1.15,9.65,104.0312,9.59,10.62,90.8,0,110.1,13.42,10.38,339.7
"2009-05-26 01:13:30",919179,4.468,19.01,7.872,1.636,11.25,104.0312,9.59,10.61,90.8,0,110.1,13.39,10.38,341.0
"2009-05-26 01:14:00",919180,5.826,27.11,8.21,1.725,13.1,104.0312,9.59,10.84,91.1,0,110.1,13.39,10.38,349.1
"2009-05-26 01:14:30",919181,6.909,35.01,7.788,1.279,14.33,104.0295,9.59,10.86,91.2,0,110.1,13.39,10.38,357.0
"2009-05-26 01:15:00",919182,6.294,30.34,7.916,1.314,13.86,104.0247,9.58,10.88,91.2,0,110.1,13.39,10.36,352.3
"2009-05-26 01:15:30",919183,6.922,35.53,6.475,1.415,13.65,104.0227,9.57,10.82,91.2,0,110.1,13.39,10.36,357.5
"2009-05-26 01:16:00",919184,5.087,23.26,4.623,0.671,10.11,104.0137,9.55,10.6,91,0,110.1,13.39,10.33,345.3
"2009-05-26 01:16:30",919185,4.695,25,3.103,0.367,9.93,104.0072,9.53,10.57,91,0,110.1,13.42,10.32,347.0
"2009-05-26 01:17:00",919186,6.447,29.07,6.847,1.399,13.23,103.999,9.51,10.67,91.1,0,110.1,13.39,10.30,351.1
"2009-05-26 01:17:30",919187,5.921,25.94,6.966,1.378,13.39,103.9973,9.51,10.8,91.3,0,110.1,13.4,10.29,347.9
"2009-05-26 01:18:00",919188,6.237,29.09,3.674,0.841,15.16,103.9973,9.51,10.86,91.4,0,110.1,13.39,10.29,351.1
"2009-05-26 01:18:30",919189,5.196,24.09,6.198,1.104,13.07,103.9973,9.51,10.8,91.4,0,110.1,13.39,10.29,346.1
"2009-05-26 01:19:00",919190,5.766,26.35,7.532,1.245,12.79,103.9973,9.51,10.66,91.3,0,110.1,13.39,10.29,348.4
"2009-05-26 01:19:30",919191,3.926,17.27,1.848,0.31,9.62,103.9973,9.51,10.55,91.2,0,110.1,13.42,10.29,339.3
"2009-05-26 01:20:00",919192,4.233,19.68,6.537,1.192,10.79,103.9959,9.5,10.67,91.4,0,110.1,13.39,10.29,341.7
"2009-05-26 01:20:30",919193,4.363,19.16,7.432,1.374,11.25,103.9922,9.49,10.59,91.3,0,110.1,13.39,10.28,341.2
"2009-05-26 01:21:00",919194,4.972,19.98,6.278,1.215,13.11,103.9888,9.49,10.73,91.4,0,110.1,13.4,10.27,342.0
"2009-05-26 01:21:30",919195,5.585,22.6,6.597,1.239,13.91,103.988,9.48,10.75,91.5,0,110.1,13.4,10.27,344.6
"2009-05-26 01:22:00",919196,5.918,24.35,8.61,1.353,13.29,103.9863,9.48,10.71,91.5,0,110.1,13.4,10.26,346.4
"2009-05-26 01:22:30",919197,5.418,23.52,6.019,0.983,12.02,103.9837,9.47,10.7,91.5,0,110.1,13.39,10.26,345.5
"2009-05-26 01:23:00",919198,4.173,16.65,2.3,0.563,9.73,103.9829,9.47,10.51,91.4,0,110.1,13.42,10.26,338.6
"2009-05-26 01:23:30",919199,5.214,21.92,6.622,1.169,11.74,103.9775,9.46,10.66,91.5,0,110.1,13.39,10.24,343.9
"2009-05-26 01:24:00",919200,5.213,20.03,6.542,1.093,11.49,103.9699,9.44,10.64,91.6,0,110.1,13.39,10.22,342.0
"2009-05-26 01:24:30",919201,6.03,26.49,6.828,1.258,13.06,103.9674,9.43,10.71,91.7,0,110.1,13.39,10.22,348.5
"2009-05-26 01:25:00",919202,7.25,31.4,6.782,0.941,14.87,103.9671,9.43,10.75,91.7,0,110.1,13.39,10.21,353.4
"2009-05-26 01:25:30",919203,6.721,32.29,6.399,1.212,13.87,103.9654,9.43,10.68,91.7,0,110.1,13.39,10.21,354.3
"2009-05-26 01:26:00",919204,5.212,22.55,4.447,0.713,11.2,103.9637,9.42,10.64,91.7,0,110.1,13.39,10.21,344.5
"2009-05-26 01:26:30",919205,4.615,19.2,1.046,0.545,9.94,103.9634,9.42,10.48,91.6,0,110.1,13.39,10.21,341.2
"2009-05-26 01:27:00",919206,4.934,22.4,6.635,1.183,12.05,103.9634,9.42,10.62,91.7,0,110.1,13.39,10.21,344.4
"2009-05-26 01:27:30",919207,4.141,17.29,2.147,0.543,10.1,103.9634,9.42,10.58,91.7,0,110.1,13.43,10.21,339.3
"2009-05-26 01:28:00",919208,4.893,18.31,7.275,1.23,12.53,103.9634,9.42,10.59,91.8,0,110.1,13.4,10.21,340.3
"2009-05-26 01:28:30",919209,5.569,16.88,6.264,0.98,13.97,103.9634,9.42,10.77,91.9,0,110.1,13.4,10.21,338.9
"2009-05-26 01:29:00",919210,4.637,15.25,7.35,1.371,13.45,103.9603,9.41,10.72,91.9,0,110.1,13.4,10.20,337.2
"2009-05-26 01:29:30",919211,3.888,13.79,8.92,1.726,10.53,103.9541,9.4,10.46,91.7,0,110.1,13.4,10.18,335.8
"2009-05-26 01:30:00",919212,4.094,12.55,6.436,0.774,10.35,103.951,9.39,10.59,91.8,0,110.1,13.4,10.17,334.5
"2009-05-26 01:30:30",919213,4.763,9.51,9,1.197,11.08,103.947,9.38,10.48,91.7,0,110.1,13.4,10.16,331.5
"2009-05-26 01:31:00",919214,3.968,13.35,5.832,1.254,10.36,103.9389,9.36,10.51,91.7,0,110.1,13.44,10.14,335.4
"2009-05-26 01:31:30",919215,5.005,19.86,7.877,1.332,12.14,103.9309,9.34,10.57,91.8,0,110.1,13.4,10.12,341.9
"2009-05-26 01:32:00",919216,6.256,24.4,9.11,1.662,13.83,103.9295,9.33,10.68,91.9,0,110.1,13.4,10.12,346.4
"2009-05-26 01:32:30",919217,5.827,22.95,11.69,1.709,13.75,103.9295,9.33,10.67,92,0,110.1,13.4,10.12,345.0
"2009-05-26 01:33:00",919218,3.904,14.42,5.982,1.185,10.49,103.9295,9.33,10.48,91.8,0,110.1,13.4,10.12,336.4
"2009-05-26 01:33:30",919219,6.422,21.89,6.236,1.147,11.8,103.9295,9.33,10.53,91.8,0,110.1,13.4,10.12,343.9
"2009-05-26 01:34:00",919220,4.512,16.74,2.798,0.74,9.96,103.929,9.33,10.5,91.9,0,110.1,13.44,10.12,338.7
"2009-05-26 01:34:30",919221,5.009,19.21,6.085,1.343,10.3,103.9256,9.32,10.37,91.8,0,110.1,13.4,10.11,341.2
"2009-05-26 01:35:00",919222,5.488,21.94,6.954,1.42,11.86,103.9225,9.32,10.53,91.9,0,110.1,13.4,10.10,343.9
"2009-05-26 01:35:30",919223,6.29,24.61,8.04,1.57,12.82,103.9202,9.31,10.53,92,0,110.1,13.4,10.09,346.6
"2009-05-26 01:36:00",919224,5.821,17.81,12.05,1.461,13.59,103.9205,9.31,10.63,92.1,0,110.1,13.4,10.10,339.8
"2009-05-26 01:36:30",919225,5.795,6.973,6.999,1.237,13.44,103.9185,9.31,10.53,92,0,110.1,13.4,10.09,329.0
"2009-05-26 01:37:00",919226,4.874,16.43,9.6,1.28,10.78,103.9191,9.31,10.49,92.1,0,110.1,13.4,10.09,338.4
"2009-05-26 01:37:30",919227,5.295,17.59,6.564,1.158,10.51,103.918,9.3,10.38,92,0,110.1,13.4,10.09,339.6
"2009-05-26 01:38:00",919228,5.62,21.3,7.455,1.325,11.65,103.9151,9.3,10.47,92.1,0,110.1,13.4,10.08,343.3
"2009-05-26 01:38:30",919229,5.554,22.29,7.12,1.378,12.09,103.905,9.27,10.48,92.1,0,110.1,13.4,10.06,344.3
"2009-05-26 01:39:00",919230,5.496,20.76,7.434,1.359,12.45,103.9033,9.27,10.5,92.2,0,110.1,13.4,10.05,342.8
"2009-05-26 01:39:30",919231,6.255,27.46,5.539,1.074,14.32,103.9024,9.26,10.63,92.3,0,110.1,13.4,10.05,349.5
"2009-05-26 01:40:00",919232,6.417,25.23,6.167,1.243,13.95,103.8976,9.25,10.54,92.2,0,110.1,13.4,10.04,347.2
"2009-05-26 01:40:30",919233,5.307,18.65,0.711,0.33,10,103.8965,9.25,10.44,92.1,0,110.1,13.43,10.03,340.6
"2009-05-26 01:41:00",919234,5.48,18.37,1.112,0.304,10.03,103.8957,9.25,10.4,92.1,0,110.1,13.43,10.03,340.4
"2009-05-26 01:41:30",919235,6.338,21.48,8.09,1.615,12.08,103.8957,9.25,10.4,92.1,0,110.1,13.4,10.03,343.5
"2009-05-26 01:42:00",919236,6.723,22.49,6.308,1.22,13.27,103.8957,9.25,10.46,92.2,0,110.1,13.4,10.03,344.5
"2009-05-26 01:42:30",919237,7.395,25.14,6.436,1.378,13.32,103.8957,9.25,10.59,92.4,0,110.1,13.4,10.03,347.1
"2009-05-26 01:43:00",919238,8.32,28.91,5.164,1.071,14.66,103.8957,9.25,10.61,92.4,0,110.1,13.4,10.03,350.9
"2009-05-26 01:43:30",919239,7.866,26.74,6.867,1.403,12.86,103.8957,9.25,10.49,92.4,0,110.1,13.4,10.03,348.7
"2009-05-26 01:44:00",919240,6.994,22.61,6.568,1.301,11.4,103.8948,9.25,10.4,92.3,0,110.1,13.4,10.03,344.6
"2009-05-26 01:44:30",919241,7.162,23.82,6.163,1.303,11.96,103.8954,9.25,10.43,92.3,0,110.1,13.4,10.03,345.8
"2009-05-26 01:45:00",919242,6.788,22.69,6.598,1.412,11.96,103.894,9.24,10.44,92.4,0,110.1,13.4,10.03,344.7
"2009-05-26 01:45:30",919243,7.527,26.36,7.21,1.603,13.34,103.8928,9.24,10.44,92.4,0,110.1,13.4,10.02,348.4
"2009-05-26 01:46:00",919244,8.62,29.61,5.524,0.945,14.36,103.8912,9.24,10.61,92.6,0,110.1,13.4,10.02,351.6
"2009-05-26 01:46:30",919245,8.12,30.8,3.667,0.82,14.96,103.8934,9.24,10.63,92.7,0,110.1,13.4,10.03,352.8
"2009-05-26 01:47:00",919246,7.284,27.08,5.717,1.144,13.62,103.8937,9.24,10.46,92.5,0,110.1,13.4,10.03,349.1
"2009-05-26 01:47:30",919247,6.718,21.61,5.804,1.337,10.86,103.8909,9.23,10.45,92.5,0,110.1,13.4,10.02,343.6
"2009-05-26 01:48:00",919248,6.375,20.38,5.941,1.632,10.69,103.8903,9.23,10.37,92.5,0,110.1,13.4,10.02,342.4
"2009-05-26 01:48:30",919249,4.63,13.89,3.349,0.824,9.79,103.8901,9.23,10.3,92.5,0,110.1,13.44,10.02,335.9
"2009-05-26 01:49:00",919250,5.497,17.86,8.48,1.463,12.4,103.8904,9.23,10.45,92.6,0,110.1,13.4,10.02,339.9
"2009-05-26 01:49:30",919251,6.606,20.02,5.946,1.151,14.66,103.8907,9.23,10.59,92.8,0,110.1,13.4,10.02,342.0
"2009-05-26 01:50:00",919252,7.228,24.16,7.898,1.27,14.14,103.889,9.23,10.6,92.9,0,110.1,13.4,10.01,346.2
"2009-05-26 01:50:30",919253,5.264,14.8,9.28,1.477,11.58,103.8913,9.24,10.4,92.7,0,110.1,13.4,10.02,336.8
"2009-05-26 01:51:00",919254,5.307,16.44,7.925,1.268,11.36,103.8916,9.24,10.42,92.8,0,110.1,13.4,10.02,338.4